Winona, MN

8:16 AM CDT on September 19, 2019 (GMT -0500)
Winona Municipal-Conrad

Weather History for KONA - July, 2019

Change the Weather History Date:

Wednesday, July 17, 2019

  Actual Average Record
Temperature  
Mean Temperature 76 °F -  
Max Temperature 84 °F 87 °F 100 °F (2006)
Min Temperature 69 °F 63 °F 51 °F (2014)
Cooling Degree Days 12    
Growing Degree Days 26 (Base 50)    
Moisture  
Dew Point 70 °F    
Average Humidity 80    
Maximum Humidity 94    
Minimum Humidity 65    
Precipitation  
Precipitation 0.00 in - - ()
Sea Level Pressure  
Sea Level Pressure 29.87 in    
Wind  
Wind Speed 2 mph (SSE)    
Max Wind Speed 9 mph    
Max Gust Speed -    
Visibility 9 miles    
Events      
Averages and records for this station are not official NWS values.
T = Trace of Precipitation, MM = Missing Value Source: NWS Daily Summary

Daily Weather History Graph

Daily Weather History Graph

Search for Another Location

Airport or City:

Astronomy

Jul. 17, 2019 Rise Set
Actual Time 5:39 AM CDT 8:46 PM CDT
Civil Twilight 5:04 AM CDT 9:20 PM CDT
Nautical Twilight 4:19 AM CDT 10:05 PM CDT
Astronomical Twilight 3:25 AM CDT 10:59 PM CDT
Moon 9:34 PM CDT (7/17) 6:12 AM CDT (7/17)
Length of Visible Light 16h 16m
Length of Day
15h 06m
Full, 99% of the Moon is Illuminated
Jul 17
Full
Jul 24
Last Quarter
Jul 31
New
Aug 7
First Quarter
Aug 15
Full

Hourly Weather History & Observations

Time (CDT) Temp. Heat Index Dew Point Humidity Pressure Visibility Wind Dir Wind Speed Gust Speed Precip Events Conditions
12:55 AM 69.8 °F - 68.0 °F 94% 29.92 in 10.0 mi Calm Calm - N/A   Clear
1:55 AM 69.8 °F - 68.0 °F 94% 29.92 in 10.0 mi Calm Calm - N/A   Scattered Clouds
2:55 AM 69.8 °F - 68.0 °F 94% 29.92 in 10.0 mi Calm Calm - N/A   Mostly Cloudy
3:55 AM 69.8 °F - 68.0 °F 94% 29.93 in 7.0 mi Calm Calm - N/A   Overcast
4:55 AM 69.8 °F - 68.0 °F 94% 29.92 in 4.0 mi Calm Calm - N/A   Overcast
5:55 AM 69.8 °F - 68.0 °F 94% 29.92 in 1.0 mi Calm Calm - N/A   Overcast
6:55 AM 69.8 °F - 68.0 °F 94% 29.91 in 3.0 mi Calm Calm - N/A   Overcast
7:55 AM 71.6 °F - 69.8 °F 94% 29.92 in 10.0 mi SE 3.5 mph - N/A   Mostly Cloudy
8:55 AM 75.2 °F - 69.8 °F 83% 29.92 in 10.0 mi ESE 4.6 mph - N/A   Clear
9:55 AM 77.0 °F - 71.6 °F 83% 29.92 in 10.0 mi SE 4.6 mph - N/A   Clear
10:55 AM 78.8 °F - 71.6 °F 78% 29.92 in 10.0 mi ESE 4.6 mph - N/A   Clear
11:55 AM 82.4 °F 87.2 °F 71.6 °F 70% 29.92 in 10.0 mi SSE 5.8 mph - N/A   Clear
12:55 PM 82.4 °F 87.2 °F 71.6 °F 70% 29.91 in 10.0 mi South 3.5 mph - N/A   Scattered Clouds
1:55 PM 82.4 °F 87.2 °F 71.6 °F 70% 29.86 in 10.0 mi SE 9.2 mph - N/A   Clear
2:55 PM 82.4 °F 87.2 °F 71.6 °F 70% 29.80 in 10.0 mi SSE 8.1 mph - N/A   Clear
3:55 PM 82.4 °F 86.3 °F 69.8 °F 66% 29.79 in 10.0 mi South 4.6 mph - N/A   Clear
4:55 PM 82.4 °F 87.2 °F 71.6 °F 70% 29.82 in 10.0 mi SSE 8.1 mph - N/A   Clear
5:55 PM 84.2 °F 89.6 °F 71.6 °F 66% 29.80 in 10.0 mi South 5.8 mph - N/A   Scattered Clouds
6:55 PM 82.4 °F 87.2 °F 71.6 °F 70% 29.79 in 10.0 mi South 3.5 mph - N/A   Scattered Clouds
7:55 PM 80.6 °F 83.2 °F 68.0 °F 65% 29.81 in 10.0 mi WSW 5.8 mph - N/A   Clear
8:55 PM 77.0 °F - 68.0 °F 74% 29.81 in 10.0 mi Calm Calm - N/A   Clear
9:55 PM 77.0 °F - 68.0 °F 74% 29.82 in 10.0 mi Calm Calm - N/A   Clear
10:55 PM 77.0 °F - 68.0 °F 74% 29.82 in 10.0 mi SSW 3.5 mph - N/A   Scattered Clouds
11:55 PM 75.2 °F - 68.0 °F 78% 29.82 in 10.0 mi SE 3.5 mph - N/A   Overcast